Orbital Elements at Epoch 2459200.5 (2020-Dec-17.0) TDB
Reference: JPL 11 (heliocentric ecliptic J2000)
Element | Value | Uncertainty (1-sigma) | Units |
e | .08366857047150732 | 9.8779e-08 | |
a | 2.700033112222163 | 3.857e-08 | au |
q | 2.4741252014968 | 2.8505e-07 | au |
i | 11.80426100001634 | 1.2081e-05 | deg |
node | 327.5762035876705 | 2.35e-05 | deg |
peri | 222.6961538247453 | 6.5089e-05 | deg |
M | 273.3791432666829 | 6.5496e-05 | deg |
tp | 2459590.416879577454 (2022-Jan-10.91687958) | 0.00029961 | TDB |
period | 1620.511294179949 4.44 | 3.4723e-05 9.507e-08 | d yr |
n | .2221521079753882 | 4.7601e-09 | deg/d |
Q | 2.925941022947526 | 4.1797e-08 | au |
|
| | Orbit Determination Parameters
Additional Information
|